Location: Cheadle
(51.0146°N, 113.5417°W)
Time: 15:14:18
(UTC+00:00)

TIGRISAT - Pass Details

Date: 07 December 2023
Orbit: 597 x 674 km, 97.7° (Epoch: 28 February)

Event Time Altitude Azimuth Distance (km) Brightness Sun altitude
Exits shadow 02:28:24 - 356° (N) 2,695 ? -27.1°
Reaches altitude 10° 02:30:36 10° 339° (NNW) 2,052 ? -27.5°
Maximum altitude 02:33:09 15° 304° (NW) 1,709 ? -27.9°
Drops below altitude 10° 02:35:40 10° 269° (W) 2,015 ? -28.3°
Sets 02:38:38 0° 246° (WSW) 2,900 ? -28.7°
